FW3958 Weather Reports


time (UTC)temp
C
wind
direction
speed
KPH
gust
KPH
rain 1hr
cm
rain 24hr
cm
rain mn
cm
humidity
%
barometer
mb
20260901040037 15 210 0.0 4.8 0.00 0.00 0.00 97 1012.3
20260901034536 15 213 0.0 4.8 0.00 0.00 0.00 97 1012.1
20260901033034 15 204 1.6 6.4 0.00 0.00 0.00 97 1012.1
20260901031547 15 204 0.0 4.8 0.00 0.00 0.00 97 1011.9
20260901030033 16 215 0.0 1.6 0.00 0.00 0.00 96 1011.9
20260901024533 16 207 1.6 6.4 0.00 0.00 0.00 96 1012.0
20260901023037 16 213 3.2 12.9 0.00 0.00 0.00 95 1012.1
20260901021531 16 257 1.6 9.7 0.00 0.00 0.00 93 1012.1
20260901020031 17 211 4.8 11.3 0.00 0.00 0.00 92 1012.1
20260901014531 18 201 3.2 11.3 0.00 0.00 0.00 88 1012.0
20260901013032 20 201 3.2 14.5 0.00 0.00 0.00 82 1011.9
20260901011528 20 234 0.0 4.8 0.00 0.00 0.00 82 1011.8
20260901010035 20 280 3.2 12.9 0.00 0.00 0.00 81 1011.6
20260901004527 20 275 3.2 12.9 0.00 0.00 0.00 76 1011.5
20260901003025 20 298 4.8 12.9 0.00 0.00 0.00 76 1011.4
20260901001525 21 288 6.4 14.5 0.00 0.00 0.00 75 1011.3
20260901000022 22 302 6.4 11.3 0.00 0.00 0.00 75 1011.4
20260831234620 22 295 6.4 12.9 0.00 0.00 0.00 75 1011.1
20260831233018 22 309 4.8 12.9 0.00 0.00 0.00 74 1011.1
20260831231517 22 326 6.4 14.5 0.00 0.00 0.00 75 1011.3
20260831230016 22 326 9.7 16.1 0.00 0.00 0.00 74 1011.1
20260831224514 22 344 4.8 17.7 0.00 0.00 0.00 74 1011.1
20260831223018 23 330 8.0 12.9 0.00 0.00 0.00 71 1011.0
20260831221522 23 26 6.4 16.1 0.00 0.00 0.00 71 1010.9
20260831220010 23 311 11.3 16.1 0.00 0.00 0.00 69 1010.9
20260831214506 24 5 3.2 14.5 0.00 0.00 0.00 67 1011.1
20260831213003 24 16 3.2 8.0 0.00 0.00 0.00 64 1011.4
20260831211614 24 12 1.6 9.7 0.00 0.00 0.00 64 1011.4
20260831210057 23 359 4.8 12.9 0.00 0.00 0.00 67 1011.5
20260831204556 23 282 0.0 12.9 0.00 0.00 0.00 67 1011.5
20260831203052 23 333 0.0 14.5 0.00 0.00 0.00 66 1011.7
20260831201553 22 317 3.2 12.9 0.00 0.00 0.00 69 1012.0
20260831200045 22 316 4.8 16.1 0.00 0.00 0.00 71 1012.1
20260831194618 21 12 6.4 16.1 0.00 0.00 0.00 69 1012.2
20260831193042 21 347 3.2 16.1 0.00 0.00 0.00 70 1012.2
20260831191539 21 11 4.8 19.3 0.00 0.00 0.00 72 1012.5
20260831190040 21 7 4.8 11.3 0.00 0.00 0.00 73 1012.7
20260831184544 21 322 3.2 11.3 0.00 0.00 0.00 71 1012.9
20260831183034 21 19 0.0 1.6 0.00 0.00 0.00 72 1013.0
20260831181533 21 6 3.2 12.9 0.00 0.00 0.00 70 1013.2
20260831180029 20 46 0.0 12.9 0.00 0.00 0.00 73 1013.2
20260831174543 20 282 0.0 4.8 0.00 0.00 0.00 75 1013.2
20260831173023 20 355 0.0 4.8 0.00 0.00 0.00 78 1013.4
20260831171537 19 90 0.0 0.0 0.00 0.00 0.00 78 1013.5
20260831170045 18 95 0.0 0.0 0.00 0.00 0.00 84 1013.5
20260831164513 18 85 0.0 0.0 0.00 0.00 0.00 88 1013.6
20260831163010 17 46 0.0 3.2 0.00 0.00 0.00 92 1013.7
20260831161505 16 90 0.0 3.2 0.00 0.00 0.00 96 1013.9
20260831160001 15 52 0.0 0.0 0.00 0.00 0.00 99 1014.0
20260831154613 13 52 0.0 0.0 0.00 0.00 0.00 100 1014.1
20260831153152 12 52 0.0 0.0 0.00 0.00 0.00 100 1014.2
20260831151549 11 52 0.0 0.0 0.00 0.00 0.00 100 1014.3
20260831150048 10 52 0.0 0.0 0.00 0.00 0.00 100 1014.2
20260831144547 8 52 0.0 0.0 0.00 0.00 0.00 100 1014.3
20260831143046 7 52 0.0 0.0 0.00 0.00 0.00 100 1014.3
20260831141543 7 16 0.0 0.0 0.00 0.00 0.00 100 1014.4
20260831140043 7 13 0.0 0.0 0.00 0.00 0.00 100 1014.6
20260831134543 7 13 0.0 0.0 0.00 0.00 0.00 100 1014.7
20260831133041 7 13 0.0 0.0 0.00 0.00 0.00 100 1014.5
20260831131537 7 13 0.0 0.0 0.00 0.00 0.00 100 1014.7
20260831130035 7 13 0.0 0.0 0.00 0.00 0.00 100 1014.9
20260831124536 8 13 0.0 0.0 0.00 0.00 0.00 100 1014.9
20260831123031 7 13 0.0 0.0 0.00 0.00 0.00 100 1015.0
20260831121529 8 13 0.0 0.0 0.00 0.00 0.00 100 1015.2
20260831120031 8 13 0.0 0.0 0.00 0.00 0.00 100 1015.4
20260831114525 8 13 0.0 0.0 0.00 0.00 0.00 100 1015.5
20260831113022 8 13 0.0 0.0 0.00 0.00 0.00 100 1015.6
20260831111528 8 13 0.0 0.0 0.00 0.00 0.00 100 1015.6
20260831110019 8 13 0.0 0.0 0.00 0.00 0.00 100 1015.7
20260831104529 8 13 0.0 0.0 0.00 0.00 0.00 100 1015.9
20260831103035 8 13 0.0 0.0 0.00 0.00 0.00 100 1015.8
20260831101513 8 13 0.0 0.0 0.00 0.00 0.00 100 1016.0
20260831100017 8 13 0.0 0.0 0.00 0.00 0.00 100 1016.2
20260831094522 9 13 0.0 0.0 0.00 0.00 0.00 100 1016.4
20260831093007 9 13 0.0 0.0 0.00 0.00 0.00 100 1016.6
20260831091503 10 13 0.0 0.0 0.00 0.00 0.00 100 1016.7
20260831090003 10 13 0.0 0.0 0.00 0.00 0.00 100 1017.0
20260831084600 10 13 0.0 0.0 0.00 0.00 0.00 100 1017.1
20260831083058 10 13 0.0 0.0 0.00 0.00 0.00 100 1017.2
20260831081555 10 13 0.0 0.0 0.00 0.00 0.00 100 1017.3
20260831080103 10 13 0.0 0.0 0.00 0.00 0.00 100 1017.5
20260831074550 11 13 0.0 0.0 0.00 0.00 0.00 100 1017.6
20260831073048 11 13 0.0 0.0 0.00 0.00 0.00 100 1017.8
20260831071545 11 13 0.0 0.0 0.00 0.00 0.00 100 1017.9
20260831070042 11 13 0.0 0.0 0.00 0.00 0.00 100 1018.2
20260831064541 11 13 0.0 0.0 0.00 0.00 0.00 100 1018.2
20260831063038 11 13 0.0 0.0 0.00 0.00 0.00 100 1018.5
20260831061538 12 13 0.0 0.0 0.00 0.00 0.00 100 1018.6
20260831060038 12 13 0.0 0.0 0.00 0.03 0.00 98 1018.8
20260831054535 12 13 0.0 0.0 0.00 0.03 0.00 98 1019.0
20260831053034 13 13 0.0 0.0 0.00 0.03 0.00 97 1019.1
20260831051534 13 13 0.0 0.0 0.00 0.03 0.00 97 1019.3
20260831050032 13 13 0.0 0.0 0.00 0.03 0.00 96 1019.4
20260831044531 14 13 0.0 1.6 0.00 0.03 0.00 95 1019.5
20260831043029 14 14 0.0 6.4 0.00 0.03 0.00 94 1019.7
20260831041537 15 17 0.0 8.0 0.00 0.03 0.00 93 1019.7